ATLAS CENTAUR 2 DEB, 2886

Orbit data source: Space-Track

ATLAS CENTAUR 2 DEB, 2886 is space debris in LEO originally from a launch on Wed, 27 Nov 1963 UTC launched from the Air Force Eastern Test Range (AFETR). Debris objects in space refer to the collection of defunct objects orbiting the Earth. Examples of debris include non-operational satellites, rocket bodies, and fragments generated from explosions, collisions, or faulty payload assembly.

Loading next visibility...
ATLAS CENTAUR 2 DEB details
Identifier
2886, 1963-047K
Orbit
LEO
Last TLE update1 day ago
Origin
Flag of USNASA LeRC (US)
ManufacturerUnknown
MissionSpacecraft
Bus & MotorUnknown
MassUnknown
Launch date (UTC)
1963-11-27 (61 years ago)
Launch vehicleUnknown
Launch site
Air Force Eastern Test Range (AFETR)
Object type
Payload
Rocket body
Debris
Shape & HBRUnknown
Radar Cross SectionSmall (<0.1 m²)

Expand to show TLE details & history

TLE from 1 day ago
0 ATLAS CENTAUR 2 DEB
1 02886U 63047K   24356.04782308  .00000640  00000-0  38667-3 0  9999
2 02886  29.8756 325.7843 0643929 332.3470  24.4214 13.29771721803862
Epoch: 2024-12-21T01:08Z
Definitive object data (Epoch: 2024-12-21T01:08:51.914Z)
Latitude
Longitude-141.53659°
Altitude710.853 km
Speed7.716 km/s
True Right ascension21h 43m 08s
True Declination0° 00' 00"
Sunlit
Object was in daylight at TLE epoch
Visualization TLE readout
Latitude29.9976°
Longitude-56.75544°
Altitude1,274.671 km
Speed7.162 km/s
Apparent Right ascension00h 17m 09s
Apparent Declination-4° 13' 00"
Sunlit
Object is in full shadow
Visualization observer readout
Local Sidereal Time05:29:29
Azimuth259.067° W
Elevation6.357°
Doppler factor1
Orbital elements
Apogee altitude1,636.171 km
Perigee altitude666.483 km
Semi-major axis7,529.464 km
Eccentricity0.0643929
Inclination29.8756°
RAAN325.7843°
Arg. of periapsis332.347°
True anomaly27.71077°
Mean anomaly24.4214°
Eccentric anomaly26.04112°
Mean motion3.32198 °/min
BSTAR0.00038667
Orbital period108.37 mins
Loading maneuver chart data...

ATLAS CENTAUR 2 DEB Visibility forecast

Observer location: undefined°, undefined

Span
Click to sort rows by Start time (UTC) header in descending order
Start Az.
Max El. time (UTC)
Max El. Az.
Max El.
End time (UTC)
End Az.
14 mins2024-12-22 06:26:44.644Z251.137° W2024-12-22 06:32:44.644Z200.926° SSW28.605°2024-12-22 06:40:44.644Z140.029° SSE
9 mins2024-12-22 08:24:44.644Z233.97° WSW2024-12-22 08:28:44.644Z206.538° SW16.489°2024-12-22 08:33:44.644Z175.776° S
11 mins2024-12-23 02:02:44.644Z218.116° SW2024-12-23 02:07:44.644Z162.98° S25.619°2024-12-23 02:13:44.644Z107.834° ESE
12 mins2024-12-23 03:57:44.644Z236.675° WSW2024-12-23 04:02:44.644Z174.923° S32.749°2024-12-23 04:09:44.644Z115.486° SE
14 mins2024-12-23 05:51:44.644Z249.245° W2024-12-23 05:57:44.644Z193.67° SSW29.045°2024-12-23 06:05:44.644Z135.37° SSE
|